Location: Kelshall
(52.0000°N, 0.0500°W)
Time: 23:21:21
(UTC+00:00)

MetOp-A - Pass Details

Date: 18 September 2020
Orbit: 820 x 821 km, 98.5° (Epoch: 30 October)

Event Time Altitude Azimuth Distance (km) Brightness Sun altitude
Exits shadow 20:03:46 10° 175° (S) 2,452 6.3 -18.1°
Reaches altitude 10° 20:03:52 10° 175° (S) 2,413 6.3 -18.1°
Maximum altitude 20:09:10 65° 258° (WSW) 903 4.5 -18.8°
Drops below altitude 10° 20:14:32 10° 340° (NNW) 2,431 7.3 -19.5°
Sets 20:16:55 0° 344° (NNW) 3,368 8.0 -19.8°
